Location: Sevilla
(37.3933°N, 5.9839°W)
Time: 04:44:49
(UTC+02:00)

Transit 2A Rocket - Pass Details

Date: 25 June 2024
Orbit: 582 x 910 km, 66.7° (Epoch: 15 July)

Event Time Altitude Azimuth Distance (km) Brightness Sun altitude
Rises 06:15:41 0° 338° (NNW) 3,520 8.7 -8.8°
Reaches altitude 10° 06:18:22 10° 346° (NNW) 2,593 8.1 -8.4°
Maximum altitude 06:24:03 40° 55° (NE) 1,317 7.0 -7.5°
Drops below altitude 10° 06:29:39 10° 124° (SE) 2,557 8.0 -6.6°
Sets 06:32:16 0° 131° (SE) 3,465 8.6 -6.2°
